Year,Month,Day,Hour,Minute,Value (Times are PST for temperature in C)
2011,05,29,00,00,7.00
2011,05,29,00,01,7.00
2011,05,29,00,02,7.00
2011,05,29,00,03,6.90
2011,05,29,00,04,6.90
2011,05,29,00,05,6.90
2011,05,29,00,06,6.80
2011,05,29,00,07,6.80
2011,05,29,00,08,6.80
2011,05,29,00,09,6.80
2011,05,29,00,10,6.80
2011,05,29,00,11,6.80
2011,05,29,00,12,6.80
2011,05,29,00,13,6.80
2011,05,29,00,14,6.80
2011,05,29,00,15,6.70
2011,05,29,00,16,6.70
2011,05,29,00,17,6.70
2011,05,29,00,18,6.70
2011,05,29,00,19,6.70
2011,05,29,00,20,6.70
2011,05,29,00,21,6.60
2011,05,29,00,22,6.60
2011,05,29,00,23,6.60
2011,05,29,00,24,6.60
2011,05,29,00,25,6.60
2011,05,29,00,26,6.60
2011,05,29,00,27,6.60
2011,05,29,00,28,6.60
2011,05,29,00,29,6.60
2011,05,29,00,30,6.60
2011,05,29,00,31,6.60
2011,05,29,00,32,6.50
2011,05,29,00,33,6.40
2011,05,29,00,34,6.40
2011,05,29,00,35,6.40
2011,05,29,00,36,6.40
2011,05,29,00,37,6.40
2011,05,29,00,38,6.50
2011,05,29,00,39,6.60
2011,05,29,00,40,6.60
2011,05,29,00,41,6.60
2011,05,29,00,42,6.60
2011,05,29,00,43,6.60
2011,05,29,00,44,6.60
2011,05,29,00,45,6.60
2011,05,29,00,46,6.60
2011,05,29,00,47,6.60
2011,05,29,00,48,6.60
2011,05,29,00,49,6.60
2011,05,29,00,50,6.40
2011,05,29,00,51,6.40
2011,05,29,00,52,6.40
2011,05,29,00,53,6.40
2011,05,29,00,54,6.40
2011,05,29,00,55,6.40
2011,05,29,00,56,6.40
2011,05,29,00,57,6.40
2011,05,29,00,58,6.40
2011,05,29,00,59,6.40
2011,05,29,01,00,6.40
2011,05,29,01,01,6.40
2011,05,29,01,02,6.40
2011,05,29,01,03,6.60
2011,05,29,01,04,6.60
2011,05,29,01,05,6.60
2011,05,29,01,06,6.60
2011,05,29,01,07,6.60
2011,05,29,01,08,6.60
2011,05,29,01,09,6.60
2011,05,29,01,10,6.60
2011,05,29,01,11,6.60
2011,05,29,01,12,6.60
2011,05,29,01,13,6.60
2011,05,29,01,14,6.60
2011,05,29,01,15,6.60
2011,05,29,01,16,6.60
2011,05,29,01,17,6.60
2011,05,29,01,18,6.60
2011,05,29,01,19,6.60
2011,05,29,01,20,6.60
2011,05,29,01,21,6.60
2011,05,29,01,22,6.60
2011,05,29,01,23,6.60
2011,05,29,01,24,6.60
2011,05,29,01,25,6.60
2011,05,29,01,26,6.60
2011,05,29,01,27,6.60
2011,05,29,01,28,6.60
2011,05,29,01,29,6.60
2011,05,29,01,30,6.60
2011,05,29,01,31,6.60
2011,05,29,01,32,6.60
2011,05,29,01,33,6.60
2011,05,29,01,34,6.60
2011,05,29,01,35,6.60
2011,05,29,01,36,6.60
2011,05,29,01,37,6.60
2011,05,29,01,38,6.60
2011,05,29,01,39,6.60
2011,05,29,01,40,6.60
2011,05,29,01,41,6.60
2011,05,29,01,42,6.60
2011,05,29,01,43,6.60
2011,05,29,01,44,6.60
2011,05,29,01,45,6.60
2011,05,29,01,46,6.60
2011,05,29,01,47,6.60
2011,05,29,01,48,6.60
2011,05,29,01,49,6.60
2011,05,29,01,50,6.60
2011,05,29,01,51,6.70
2011,05,29,01,52,6.70
2011,05,29,01,53,6.70
2011,05,29,01,54,6.70
2011,05,29,01,55,6.70
2011,05,29,01,56,6.70
2011,05,29,01,57,6.70
2011,05,29,01,58,6.80
2011,05,29,01,59,6.80
2011,05,29,02,00,6.80
2011,05,29,02,01,6.80
2011,05,29,02,02,6.80
2011,05,29,02,03,6.80
2011,05,29,02,04,6.80
2011,05,29,02,05,6.80
2011,05,29,02,06,6.80
2011,05,29,02,07,6.80
2011,05,29,02,08,6.80
2011,05,29,02,09,6.80
2011,05,29,02,10,6.80
2011,05,29,02,11,6.80
2011,05,29,02,12,6.80
2011,05,29,02,13,6.80
2011,05,29,02,14,6.80
2011,05,29,02,15,6.80
2011,05,29,02,16,6.80
2011,05,29,02,17,6.80
2011,05,29,02,18,6.80
2011,05,29,02,19,6.80
2011,05,29,02,20,6.80
2011,05,29,02,21,6.80
2011,05,29,02,22,6.80
2011,05,29,02,23,6.80
2011,05,29,02,24,6.80
2011,05,29,02,25,6.80
2011,05,29,02,26,6.80
2011,05,29,02,27,6.80
2011,05,29,02,28,6.80
2011,05,29,02,29,6.80
2011,05,29,02,30,6.80
2011,05,29,02,31,6.80
2011,05,29,02,32,6.80
2011,05,29,02,33,6.80
2011,05,29,02,34,6.80
2011,05,29,02,35,6.80
2011,05,29,02,36,6.90
2011,05,29,02,37,6.90
2011,05,29,02,38,6.90
2011,05,29,02,39,6.90
2011,05,29,02,40,6.90
2011,05,29,02,41,6.90
2011,05,29,02,42,6.90
2011,05,29,02,43,6.90
2011,05,29,02,44,6.90
2011,05,29,02,45,6.90
2011,05,29,02,46,6.90
2011,05,29,02,47,6.90
2011,05,29,02,48,6.90
2011,05,29,02,49,6.90
2011,05,29,02,50,6.90
2011,05,29,02,51,6.90
2011,05,29,02,52,6.90
2011,05,29,02,53,6.90
2011,05,29,02,54,6.90
2011,05,29,02,55,6.90
2011,05,29,02,56,6.90
2011,05,29,02,57,6.90
2011,05,29,02,58,6.90
2011,05,29,02,59,6.90
2011,05,29,03,00,6.90
2011,05,29,03,01,6.90
2011,05,29,03,02,6.90
2011,05,29,03,03,6.90
2011,05,29,03,04,6.90
2011,05,29,03,05,6.90
2011,05,29,03,06,6.90
2011,05,29,03,07,6.90
2011,05,29,03,08,6.90
2011,05,29,03,09,6.90
2011,05,29,03,10,6.90
2011,05,29,03,11,6.90
2011,05,29,03,12,7.00
2011,05,29,03,13,7.00
2011,05,29,03,14,7.00
2011,05,29,03,15,7.00
2011,05,29,03,16,7.00
2011,05,29,03,17,7.00
2011,05,29,03,18,7.00
2011,05,29,03,19,7.00
2011,05,29,03,20,7.00
2011,05,29,03,21,7.10
2011,05,29,03,22,7.10
2011,05,29,03,23,7.10
2011,05,29,03,24,7.10
2011,05,29,03,25,7.10
2011,05,29,03,26,7.10
2011,05,29,03,27,7.10
2011,05,29,03,28,7.10
2011,05,29,03,29,7.10
2011,05,29,03,30,7.10
2011,05,29,03,31,7.10
2011,05,29,03,32,7.10
2011,05,29,03,33,7.20
2011,05,29,03,34,7.20
2011,05,29,03,35,7.20
2011,05,29,03,36,7.20
2011,05,29,03,37,7.20
2011,05,29,03,38,7.20
2011,05,29,03,39,7.20
2011,05,29,03,40,7.20
2011,05,29,03,41,7.30
2011,05,29,03,42,7.30
2011,05,29,03,43,7.30
2011,05,29,03,44,7.30
2011,05,29,03,45,7.30
2011,05,29,03,46,7.30
2011,05,29,03,47,7.30
2011,05,29,03,48,7.30
2011,05,29,03,49,7.30
2011,05,29,03,50,7.30
2011,05,29,03,51,7.30
2011,05,29,03,52,7.30
2011,05,29,03,53,7.30
2011,05,29,03,54,7.30
2011,05,29,03,55,7.30
2011,05,29,03,56,7.30
2011,05,29,03,57,7.30
2011,05,29,03,58,7.30
2011,05,29,03,59,7.30
2011,05,29,04,00,7.30
2011,05,29,04,01,7.30
2011,05,29,04,02,7.30
2011,05,29,04,03,7.30
2011,05,29,04,04,7.30
2011,05,29,04,05,7.30
2011,05,29,04,06,7.30
2011,05,29,04,07,7.30
2011,05,29,04,08,7.30
2011,05,29,04,09,7.30
2011,05,29,04,10,7.30
2011,05,29,04,11,7.30
2011,05,29,04,12,7.20
2011,05,29,04,13,7.20
2011,05,29,04,14,7.10
2011,05,29,04,15,7.10
2011,05,29,04,16,7.10
2011,05,29,04,17,7.10
2011,05,29,04,18,7.10
2011,05,29,04,19,7.10
2011,05,29,04,20,7.10
2011,05,29,04,21,7.10
2011,05,29,04,22,7.00
2011,05,29,04,23,7.00
2011,05,29,04,24,7.00
2011,05,29,04,25,7.00
2011,05,29,04,26,7.00
2011,05,29,04,27,7.00
2011,05,29,04,28,6.90
2011,05,29,04,29,6.90
2011,05,29,04,30,6.90
2011,05,29,04,31,6.90
2011,05,29,04,32,6.80
2011,05,29,04,33,6.80
2011,05,29,04,34,6.80
2011,05,29,04,35,6.80
2011,05,29,04,36,6.80
2011,05,29,04,37,6.80
2011,05,29,04,38,6.80
2011,05,29,04,39,6.80
2011,05,29,04,40,6.70
2011,05,29,04,41,6.70
2011,05,29,04,42,6.70
2011,05,29,04,43,6.70
2011,05,29,04,44,6.70
2011,05,29,04,45,6.70
2011,05,29,04,46,6.70
2011,05,29,04,47,6.60
2011,05,29,04,48,6.60
2011,05,29,04,49,6.60
2011,05,29,04,50,6.60
2011,05,29,04,51,6.60
2011,05,29,04,52,6.60
2011,05,29,04,53,6.60
2011,05,29,04,54,6.60
2011,05,29,04,55,6.60
2011,05,29,04,56,6.60
2011,05,29,04,57,6.60
2011,05,29,04,58,6.60
2011,05,29,04,59,6.60
2011,05,29,05,00,6.60
2011,05,29,05,01,6.50
2011,05,29,05,02,6.40
2011,05,29,05,03,6.40
2011,05,29,05,04,6.40
2011,05,29,05,05,6.40
2011,05,29,05,06,6.40
2011,05,29,05,07,6.40
2011,05,29,05,08,6.40
2011,05,29,05,09,6.30
2011,05,29,05,10,6.30
2011,05,29,05,11,6.30
2011,05,29,05,12,6.30
2011,05,29,05,13,6.30
2011,05,29,05,14,6.30
2011,05,29,05,15,6.30
2011,05,29,05,16,6.30
2011,05,29,05,17,6.30
2011,05,29,05,18,6.20
2011,05,29,05,19,6.30
2011,05,29,05,20,6.30
2011,05,29,05,21,6.30
2011,05,29,05,22,6.30
2011,05,29,05,23,6.30
2011,05,29,05,24,6.30
2011,05,29,05,25,6.30
2011,05,29,05,26,6.30
2011,05,29,05,27,6.30
2011,05,29,05,28,6.30
2011,05,29,05,29,6.30
2011,05,29,05,30,6.30
2011,05,29,05,31,6.30
2011,05,29,05,32,6.30
2011,05,29,05,33,6.30
2011,05,29,05,34,6.30
2011,05,29,05,35,6.30
2011,05,29,05,36,6.30
2011,05,29,05,37,6.30
2011,05,29,05,38,6.30
2011,05,29,05,39,6.30
2011,05,29,05,40,6.30
2011,05,29,05,41,6.30
2011,05,29,05,42,6.30
2011,05,29,05,43,6.30
2011,05,29,05,44,6.30
2011,05,29,05,45,6.30
2011,05,29,05,46,6.30
2011,05,29,05,47,6.30
2011,05,29,05,48,6.30
2011,05,29,05,49,6.30
2011,05,29,05,50,6.40
2011,05,29,05,51,6.40
2011,05,29,05,52,6.40
2011,05,29,05,53,6.40
2011,05,29,05,54,6.40
2011,05,29,05,55,6.30
2011,05,29,05,56,6.30
2011,05,29,05,57,6.30
2011,05,29,05,58,6.30
2011,05,29,05,59,6.30
2011,05,29,06,00,6.30
2011,05,29,06,01,6.30
2011,05,29,06,02,6.40
2011,05,29,06,03,6.40
2011,05,29,06,04,6.40
2011,05,29,06,05,6.40
2011,05,29,06,06,6.40
2011,05,29,06,07,6.40
2011,05,29,06,08,6.40
2011,05,29,06,09,6.40
2011,05,29,06,10,6.40
2011,05,29,06,11,6.60
2011,05,29,06,12,6.60
2011,05,29,06,13,6.60
2011,05,29,06,14,6.60
2011,05,29,06,15,6.60
2011,05,29,06,16,6.60
2011,05,29,06,17,6.60
2011,05,29,06,18,6.60
2011,05,29,06,19,6.60
2011,05,29,06,20,6.70
2011,05,29,06,21,6.70
2011,05,29,06,22,6.70
2011,05,29,06,23,6.80
2011,05,29,06,24,6.80
2011,05,29,06,25,6.80
2011,05,29,06,26,6.80
2011,05,29,06,27,6.80
2011,05,29,06,28,6.80
2011,05,29,06,29,6.80
2011,05,29,06,30,6.80
2011,05,29,06,31,6.80
2011,05,29,06,32,6.70
2011,05,29,06,33,6.70
2011,05,29,06,34,6.70
2011,05,29,06,35,6.70
2011,05,29,06,36,6.70
2011,05,29,06,37,6.70
2011,05,29,06,38,6.80
2011,05,29,06,39,6.80
2011,05,29,06,40,6.80
2011,05,29,06,41,6.80
2011,05,29,06,42,6.80
2011,05,29,06,43,6.90
2011,05,29,06,44,6.90
2011,05,29,06,45,6.90
2011,05,29,06,46,7.00
2011,05,29,06,47,7.00
2011,05,29,06,48,7.00
2011,05,29,06,49,7.00
2011,05,29,06,50,7.00
2011,05,29,06,51,7.00
2011,05,29,06,52,7.00
2011,05,29,06,53,7.00
2011,05,29,06,54,7.00
2011,05,29,06,55,7.00
2011,05,29,06,56,7.00
2011,05,29,06,57,7.10
2011,05,29,06,58,7.10
2011,05,29,06,59,7.10
2011,05,29,07,00,7.10
2011,05,29,07,01,7.20
2011,05,29,07,02,7.20
2011,05,29,07,03,7.30
2011,05,29,07,04,7.30
2011,05,29,07,05,7.30
2011,05,29,07,06,7.30
2011,05,29,07,07,7.40
2011,05,29,07,08,7.50
2011,05,29,07,09,7.50
2011,05,29,07,10,7.60
2011,05,29,07,11,7.60
2011,05,29,07,12,7.70
2011,05,29,07,13,7.70
2011,05,29,07,14,7.80
2011,05,29,07,15,7.80
2011,05,29,07,16,7.80
2011,05,29,07,17,7.90
2011,05,29,07,18,7.90
2011,05,29,07,19,7.90
2011,05,29,07,20,8.00
2011,05,29,07,21,8.00
2011,05,29,07,22,8.00
2011,05,29,07,23,8.10
2011,05,29,07,24,8.10
2011,05,29,07,25,8.10
2011,05,29,07,26,8.10
2011,05,29,07,27,8.20
2011,05,29,07,28,8.20
2011,05,29,07,29,8.20
2011,05,29,07,30,8.30
2011,05,29,07,31,8.30
2011,05,29,07,32,8.40
2011,05,29,07,33,8.40
2011,05,29,07,34,8.50
2011,05,29,07,35,8.50
2011,05,29,07,36,8.60
2011,05,29,07,37,8.70
2011,05,29,07,38,8.90
2011,05,29,07,39,9.00
2011,05,29,07,40,9.10
2011,05,29,07,41,9.10
2011,05,29,07,42,9.20
2011,05,29,07,43,9.20
2011,05,29,07,44,9.20
2011,05,29,07,45,9.30
2011,05,29,07,46,9.30
2011,05,29,07,47,9.40
2011,05,29,07,48,9.40
2011,05,29,07,49,9.40
2011,05,29,07,50,9.40
2011,05,29,07,51,9.40
2011,05,29,07,52,9.40
2011,05,29,07,53,9.40
2011,05,29,07,54,9.50
2011,05,29,07,55,9.60
2011,05,29,07,56,9.70
2011,05,29,07,57,9.80
2011,05,29,07,58,9.90
2011,05,29,07,59,9.90
2011,05,29,08,00,10.00
2011,05,29,08,01,10.10
2011,05,29,08,02,10.20
2011,05,29,08,03,10.30
2011,05,29,08,04,10.40
2011,05,29,08,05,10.50
2011,05,29,08,06,10.60
2011,05,29,08,07,10.60
2011,05,29,08,08,10.70
2011,05,29,08,09,10.80
2011,05,29,08,10,10.80
2011,05,29,08,11,10.90
2011,05,29,08,12,10.90
2011,05,29,08,13,11.00
2011,05,29,08,14,11.10
2011,05,29,08,15,11.10
2011,05,29,08,16,11.20
2011,05,29,08,17,11.20
2011,05,29,08,18,11.20
2011,05,29,08,19,11.20
2011,05,29,08,20,11.20
2011,05,29,08,21,11.20
2011,05,29,08,22,11.30
2011,05,29,08,23,11.40
2011,05,29,08,24,11.40
2011,05,29,08,25,11.50
2011,05,29,08,26,11.60
2011,05,29,08,27,11.60
2011,05,29,08,28,11.60
2011,05,29,08,29,11.70
2011,05,29,08,30,11.80
2011,05,29,08,31,11.80
2011,05,29,08,32,11.80
2011,05,29,08,33,11.80
2011,05,29,08,34,11.80
2011,05,29,08,35,11.80
2011,05,29,08,36,11.80
2011,05,29,08,37,11.70
2011,05,29,08,38,11.60
2011,05,29,08,39,11.60
2011,05,29,08,40,11.50
2011,05,29,08,41,11.40
2011,05,29,08,42,11.40
2011,05,29,08,43,11.40
2011,05,29,08,44,11.40
2011,05,29,08,45,11.40
2011,05,29,08,46,11.30
2011,05,29,08,47,11.30
2011,05,29,08,48,11.30
2011,05,29,08,49,11.30
2011,05,29,08,50,11.20
2011,05,29,08,51,11.20
2011,05,29,08,52,11.20
2011,05,29,08,53,11.30
2011,05,29,08,54,11.30
2011,05,29,08,55,11.30
2011,05,29,08,56,11.30
2011,05,29,08,57,11.40
2011,05,29,08,58,11.40
2011,05,29,08,59,11.50
2011,05,29,09,00,11.60
2011,05,29,09,01,11.60
2011,05,29,09,02,11.70
2011,05,29,09,03,11.80
2011,05,29,09,04,12.00
2011,05,29,09,05,12.10
2011,05,29,09,06,12.20
2011,05,29,09,07,12.30
2011,05,29,09,08,12.30
2011,05,29,09,09,12.30
2011,05,29,09,10,12.30
2011,05,29,09,11,12.30
2011,05,29,09,12,12.30
2011,05,29,09,13,12.30
2011,05,29,09,14,12.30
2011,05,29,09,15,12.30
2011,05,29,09,16,12.30
2011,05,29,09,17,12.30
2011,05,29,09,18,12.40
2011,05,29,09,19,12.40
2011,05,29,09,20,12.30
2011,05,29,09,21,12.40
2011,05,29,09,22,12.50
2011,05,29,09,23,12.60
2011,05,29,09,24,12.60
2011,05,29,09,25,12.70
2011,05,29,09,26,12.80
2011,05,29,09,27,12.80
2011,05,29,09,28,12.80
2011,05,29,09,29,12.80
2011,05,29,09,30,12.80
2011,05,29,09,31,12.90
2011,05,29,09,32,12.90
2011,05,29,09,33,12.90
2011,05,29,09,34,12.90
2011,05,29,09,35,12.90
2011,05,29,09,36,12.80
2011,05,29,09,37,12.90
2011,05,29,09,38,12.90
2011,05,29,09,39,13.00
2011,05,29,09,40,13.00
2011,05,29,09,41,13.10
2011,05,29,09,42,13.10
2011,05,29,09,43,13.20
2011,05,29,09,44,13.30
2011,05,29,09,45,13.30
2011,05,29,09,46,13.30
2011,05,29,09,47,13.30
2011,05,29,09,48,13.30
2011,05,29,09,49,13.30
2011,05,29,09,50,13.30
2011,05,29,09,51,13.30
2011,05,29,09,52,13.30
2011,05,29,09,53,13.30
2011,05,29,09,54,13.40
2011,05,29,09,55,13.50
2011,05,29,09,56,13.50
2011,05,29,09,57,13.60
2011,05,29,09,58,13.70
2011,05,29,09,59,13.70
2011,05,29,10,00,13.70
2011,05,29,10,01,13.70
2011,05,29,10,02,13.70
2011,05,29,10,03,13.70
2011,05,29,10,04,13.70
2011,05,29,10,05,13.70
2011,05,29,10,06,13.70
2011,05,29,10,07,13.70
2011,05,29,10,08,13.70
2011,05,29,10,09,13.80
2011,05,29,10,10,13.80
2011,05,29,10,11,13.80
2011,05,29,10,12,13.80
2011,05,29,10,13,13.80
2011,05,29,10,14,13.90
2011,05,29,10,15,13.90
2011,05,29,10,16,13.90
2011,05,29,10,17,14.00
2011,05,29,10,18,14.10
2011,05,29,10,19,14.10
2011,05,29,10,20,14.00
2011,05,29,10,21,14.00
2011,05,29,10,22,13.90
2011,05,29,10,23,13.90
2011,05,29,10,24,14.00
2011,05,29,10,25,14.00
2011,05,29,10,26,14.10
2011,05,29,10,27,14.00
2011,05,29,10,28,14.00
2011,05,29,10,29,14.00
2011,05,29,10,30,13.90
2011,05,29,10,31,13.80
2011,05,29,10,32,13.80
2011,05,29,10,33,13.80
2011,05,29,10,34,13.80
2011,05,29,10,35,13.90
2011,05,29,10,36,14.00
2011,05,29,10,37,14.10
2011,05,29,10,38,14.20
2011,05,29,10,39,14.00
2011,05,29,10,40,14.00
2011,05,29,10,41,14.00
2011,05,29,10,42,14.10
2011,05,29,10,43,14.20
2011,05,29,10,44,14.20
2011,05,29,10,45,14.20
2011,05,29,10,46,14.20
2011,05,29,10,47,14.20
2011,05,29,10,48,14.20
2011,05,29,10,49,14.20
2011,05,29,10,50,14.20
2011,05,29,10,51,14.20
2011,05,29,10,52,14.20
2011,05,29,10,53,14.20
2011,05,29,10,54,14.20
2011,05,29,10,55,14.20
2011,05,29,10,56,14.20
2011,05,29,10,57,14.20
2011,05,29,10,58,14.30
2011,05,29,10,59,14.40
2011,05,29,11,00,14.40
2011,05,29,11,01,14.40
2011,05,29,11,02,14.40
2011,05,29,11,03,14.40
2011,05,29,11,04,14.50
2011,05,29,11,05,14.60
2011,05,29,11,06,14.60
2011,05,29,11,07,14.60
2011,05,29,11,08,14.60
2011,05,29,11,09,14.60
2011,05,29,11,10,14.60
2011,05,29,11,11,14.50
2011,05,29,11,12,14.50
2011,05,29,11,13,14.50
2011,05,29,11,14,14.50
2011,05,29,11,15,14.50
2011,05,29,11,16,14.50
2011,05,29,11,17,14.50
2011,05,29,11,18,14.60
2011,05,29,11,19,14.60
2011,05,29,11,20,14.60
2011,05,29,11,21,14.60
2011,05,29,11,22,14.60
2011,05,29,11,23,14.60
2011,05,29,11,24,14.70
2011,05,29,11,25,14.80
2011,05,29,11,26,14.90
2011,05,29,11,27,14.90
2011,05,29,11,28,15.00
2011,05,29,11,29,15.00
2011,05,29,11,30,15.00
2011,05,29,11,31,15.00
2011,05,29,11,32,15.10
2011,05,29,11,33,15.10
2011,05,29,11,34,15.20
2011,05,29,11,35,15.10
2011,05,29,11,36,15.20
2011,05,29,11,37,15.20
2011,05,29,11,38,15.20
2011,05,29,11,39,15.20
2011,05,29,11,40,15.00
2011,05,29,11,41,14.80
2011,05,29,11,42,14.70
2011,05,29,11,43,14.60
2011,05,29,11,44,14.60
2011,05,29,11,45,14.70
2011,05,29,11,46,14.90
2011,05,29,11,47,15.00
2011,05,29,11,48,15.10
2011,05,29,11,49,15.20
2011,05,29,11,50,15.10
2011,05,29,11,51,15.10
2011,05,29,11,52,14.90
2011,05,29,11,53,14.80
2011,05,29,11,54,14.80
2011,05,29,11,55,14.70
2011,05,29,11,56,14.70
2011,05,29,11,57,14.80
2011,05,29,11,58,14.70
2011,05,29,11,59,14.60
2011,05,29,12,00,14.50
2011,05,29,12,01,14.50
2011,05,29,12,02,14.60
2011,05,29,12,03,14.60
2011,05,29,12,04,14.60
2011,05,29,12,05,14.70
2011,05,29,12,06,14.80
2011,05,29,12,07,14.80
2011,05,29,12,08,15.00
2011,05,29,12,09,15.00
2011,05,29,12,10,14.90
2011,05,29,12,11,14.90
2011,05,29,12,12,15.00
2011,05,29,12,13,15.10
2011,05,29,12,14,15.20
2011,05,29,12,15,15.20
2011,05,29,12,16,15.20
2011,05,29,12,17,15.10
2011,05,29,12,18,15.00
2011,05,29,12,19,15.10
2011,05,29,12,20,15.20
2011,05,29,12,21,15.20
2011,05,29,12,22,15.20
2011,05,29,12,23,15.10
2011,05,29,12,24,15.00
2011,05,29,12,25,15.10
2011,05,29,12,26,15.00
2011,05,29,12,27,14.90
2011,05,29,12,28,14.90
2011,05,29,12,29,14.90
2011,05,29,12,30,14.90
2011,05,29,12,31,15.00
2011,05,29,12,32,15.10
2011,05,29,12,33,15.10
2011,05,29,12,34,15.10
2011,05,29,12,35,15.10
2011,05,29,12,36,15.10
2011,05,29,12,37,15.00
2011,05,29,12,38,14.90
2011,05,29,12,39,14.80
2011,05,29,12,40,14.90
2011,05,29,12,41,15.00
2011,05,29,12,42,15.10
2011,05,29,12,43,15.20
2011,05,29,12,44,15.30
2011,05,29,12,45,15.30
2011,05,29,12,46,15.30
2011,05,29,12,47,15.40
2011,05,29,12,48,15.40
2011,05,29,12,49,15.40
2011,05,29,12,50,15.40
2011,05,29,12,51,15.40
2011,05,29,12,52,15.50
2011,05,29,12,53,15.50
2011,05,29,12,54,15.50
2011,05,29,12,55,15.60
2011,05,29,12,56,15.50
2011,05,29,12,57,15.30
2011,05,29,12,58,15.30
2011,05,29,12,59,15.30
2011,05,29,13,00,15.10
2011,05,29,13,01,15.10
2011,05,29,13,02,15.20
2011,05,29,13,03,15.20
2011,05,29,13,04,15.30
2011,05,29,13,05,15.50
2011,05,29,13,06,15.60
2011,05,29,13,07,15.70
2011,05,29,13,08,15.60
2011,05,29,13,09,15.50
2011,05,29,13,10,15.50
2011,05,29,13,11,15.50
2011,05,29,13,12,15.50
2011,05,29,13,13,15.50
2011,05,29,13,14,15.60
2011,05,29,13,15,15.70
2011,05,29,13,16,15.80
2011,05,29,13,17,15.60
2011,05,29,13,18,15.50
2011,05,29,13,19,15.60
2011,05,29,13,20,15.60
2011,05,29,13,21,15.60
2011,05,29,13,22,15.50
2011,05,29,13,23,15.50
2011,05,29,13,24,15.60
2011,05,29,13,25,15.50
2011,05,29,13,26,15.60
2011,05,29,13,27,15.50
2011,05,29,13,28,15.40
2011,05,29,13,29,15.30
2011,05,29,13,30,15.30
2011,05,29,13,31,15.50
2011,05,29,13,32,15.60
2011,05,29,13,33,15.50
2011,05,29,13,34,15.40
2011,05,29,13,35,15.30
2011,05,29,13,36,15.30
2011,05,29,13,37,15.30
2011,05,29,13,38,15.20
2011,05,29,13,39,15.20
2011,05,29,13,40,15.20
2011,05,29,13,41,15.30
2011,05,29,13,42,15.30
2011,05,29,13,43,15.40
2011,05,29,13,44,15.50
2011,05,29,13,45,15.50
2011,05,29,13,46,15.50
2011,05,29,13,47,15.50
2011,05,29,13,48,15.50
2011,05,29,13,49,15.60
2011,05,29,13,50,15.60
2011,05,29,13,51,15.60
2011,05,29,13,52,15.50
2011,05,29,13,53,15.50
2011,05,29,13,54,15.50
2011,05,29,13,55,15.50
2011,05,29,13,56,15.50
2011,05,29,13,57,15.50
2011,05,29,13,58,15.40
2011,05,29,13,59,15.30
2011,05,29,14,00,15.30
2011,05,29,14,01,15.30
2011,05,29,14,02,15.10
2011,05,29,14,03,15.00
2011,05,29,14,04,15.00
2011,05,29,14,05,15.10
2011,05,29,14,06,15.20
2011,05,29,14,07,15.20
2011,05,29,14,08,15.10
2011,05,29,14,09,15.10
2011,05,29,14,10,15.20
2011,05,29,14,11,15.30
2011,05,29,14,12,15.30
2011,05,29,14,13,15.30
2011,05,29,14,14,15.30
2011,05,29,14,15,15.30
2011,05,29,14,16,15.30
2011,05,29,14,17,15.30
2011,05,29,14,18,15.30
2011,05,29,14,19,15.30
2011,05,29,14,20,15.30
2011,05,29,14,21,15.20
2011,05,29,14,22,15.20
2011,05,29,14,23,15.10
2011,05,29,14,24,15.10
2011,05,29,14,25,15.10
2011,05,29,14,26,15.20
2011,05,29,14,27,15.30
2011,05,29,14,28,15.40
2011,05,29,14,29,15.40
2011,05,29,14,30,15.30
2011,05,29,14,31,15.30
2011,05,29,14,32,15.30
2011,05,29,14,33,15.30
2011,05,29,14,34,15.30
2011,05,29,14,35,15.20
2011,05,29,14,36,15.20
2011,05,29,14,37,15.20
2011,05,29,14,38,15.20
2011,05,29,14,39,15.30
2011,05,29,14,40,15.20
2011,05,29,14,41,15.00
2011,05,29,14,42,14.90
2011,05,29,14,43,14.80
2011,05,29,14,44,14.60
2011,05,29,14,45,14.50
2011,05,29,14,46,14.50
2011,05,29,14,47,14.50
2011,05,29,14,48,14.50
2011,05,29,14,49,14.50
2011,05,29,14,50,14.50
2011,05,29,14,51,14.50
2011,05,29,14,52,14.50
2011,05,29,14,53,14.50
2011,05,29,14,54,14.50
2011,05,29,14,55,14.40
2011,05,29,14,56,14.30
2011,05,29,14,57,14.30
2011,05,29,14,58,14.30
2011,05,29,14,59,14.40
2011,05,29,15,00,14.50
2011,05,29,15,01,14.60
2011,05,29,15,02,14.70
2011,05,29,15,03,14.80
2011,05,29,15,04,14.70
2011,05,29,15,05,14.80
2011,05,29,15,06,14.80
2011,05,29,15,07,14.80
2011,05,29,15,08,14.80
2011,05,29,15,09,14.80
2011,05,29,15,10,14.80
2011,05,29,15,11,14.80
2011,05,29,15,12,14.90
2011,05,29,15,13,15.00
2011,05,29,15,14,15.10
2011,05,29,15,15,15.20
2011,05,29,15,16,15.20
2011,05,29,15,17,15.20
2011,05,29,15,18,15.10
2011,05,29,15,19,15.10
2011,05,29,15,20,15.00
2011,05,29,15,21,14.90
2011,05,29,15,22,14.80
2011,05,29,15,23,14.80
2011,05,29,15,24,14.80
2011,05,29,15,25,14.80
2011,05,29,15,26,14.80
2011,05,29,15,27,15.00
2011,05,29,15,28,15.10
2011,05,29,15,29,15.10
2011,05,29,15,30,15.30
2011,05,29,15,31,15.30
2011,05,29,15,32,15.30
2011,05,29,15,33,15.20
2011,05,29,15,34,15.10
2011,05,29,15,35,15.10
2011,05,29,15,36,15.00
2011,05,29,15,37,15.00
2011,05,29,15,38,14.90
2011,05,29,15,39,14.80
2011,05,29,15,40,14.70
2011,05,29,15,41,14.70
2011,05,29,15,42,14.80
2011,05,29,15,43,14.80
2011,05,29,15,44,14.80
2011,05,29,15,45,14.90
2011,05,29,15,46,14.90
2011,05,29,15,47,14.90
2011,05,29,15,48,14.90
2011,05,29,15,49,14.80
2011,05,29,15,50,14.80
2011,05,29,15,51,14.70
2011,05,29,15,52,14.60
2011,05,29,15,53,14.50
2011,05,29,15,54,14.50
2011,05,29,15,55,14.50
2011,05,29,15,56,14.40
2011,05,29,15,57,14.40
2011,05,29,15,58,14.40
2011,05,29,15,59,14.40
2011,05,29,16,00,14.40
2011,05,29,16,01,14.40
2011,05,29,16,02,14.40
2011,05,29,16,03,14.40
2011,05,29,16,04,14.20
2011,05,29,16,05,14.30
2011,05,29,16,06,14.30
2011,05,29,16,07,14.30
2011,05,29,16,08,14.20
2011,05,29,16,09,14.20
2011,05,29,16,10,14.20
2011,05,29,16,11,14.20
2011,05,29,16,12,14.30
2011,05,29,16,13,14.40
2011,05,29,16,14,14.40
2011,05,29,16,15,14.30
2011,05,29,16,16,14.20
2011,05,29,16,17,14.20
2011,05,29,16,18,14.20
2011,05,29,16,19,14.20
2011,05,29,16,20,14.20
2011,05,29,16,21,14.20
2011,05,29,16,22,14.20
2011,05,29,16,23,14.20
2011,05,29,16,24,14.20
2011,05,29,16,25,14.20
2011,05,29,16,26,14.30
2011,05,29,16,27,14.30
2011,05,29,16,28,14.30
2011,05,29,16,29,14.40
2011,05,29,16,30,14.40
2011,05,29,16,31,14.50
2011,05,29,16,32,14.60
2011,05,29,16,33,14.60
2011,05,29,16,34,14.60
2011,05,29,16,35,14.60
2011,05,29,16,36,14.60
2011,05,29,16,37,14.60
2011,05,29,16,38,14.50
2011,05,29,16,39,14.30
2011,05,29,16,40,14.20
2011,05,29,16,41,14.20
2011,05,29,16,42,14.20
2011,05,29,16,43,14.10
2011,05,29,16,44,14.00
2011,05,29,16,45,14.00
2011,05,29,16,46,14.00
2011,05,29,16,47,14.10
2011,05,29,16,48,14.10
2011,05,29,16,49,14.00
2011,05,29,16,50,14.00
2011,05,29,16,51,14.10
2011,05,29,16,52,14.10
2011,05,29,16,53,14.10
2011,05,29,16,54,14.10
2011,05,29,16,55,14.10
2011,05,29,16,56,14.10
2011,05,29,16,57,14.00
2011,05,29,16,58,14.00
2011,05,29,16,59,13.90
2011,05,29,17,00,13.80
2011,05,29,17,01,13.80
2011,05,29,17,02,13.80
2011,05,29,17,03,13.90
2011,05,29,17,04,13.80
2011,05,29,17,05,13.80
2011,05,29,17,06,13.80
2011,05,29,17,07,13.90
2011,05,29,17,08,13.90
2011,05,29,17,09,13.90
2011,05,29,17,10,13.90
2011,05,29,17,11,14.00
2011,05,29,17,12,14.00
2011,05,29,17,13,14.10
2011,05,29,17,14,14.10
2011,05,29,17,15,14.10
2011,05,29,17,16,14.10
2011,05,29,17,17,14.00
2011,05,29,17,18,14.00
2011,05,29,17,19,14.00
2011,05,29,17,20,14.10
2011,05,29,17,21,14.00
2011,05,29,17,22,14.00
2011,05,29,17,23,13.90
2011,05,29,17,24,13.90
2011,05,29,17,25,13.90
2011,05,29,17,26,13.80
2011,05,29,17,27,13.80
2011,05,29,17,28,13.80
2011,05,29,17,29,13.80
2011,05,29,17,30,13.90
2011,05,29,17,31,13.90
2011,05,29,17,32,13.80
2011,05,29,17,33,13.90
2011,05,29,17,34,13.90
2011,05,29,17,35,14.00
2011,05,29,17,36,14.00
2011,05,29,17,37,14.00
2011,05,29,17,38,14.00
2011,05,29,17,39,13.90
2011,05,29,17,40,13.90